STARLINK-34235

Last updated on Sat Jul 19 2025 00:02:08 GMT+0000 (Coordinated Universal Time)

1 64760U 25147F 25199.58335648 -.01485882 00000+0 -10082-1 0 9999 2 64760 53.1571 256.8739 0000855 83.0557 322.3897 15.77205878 2852
UTC large
Height (km)
Speed (km/s)
/
Latitude / Longitude
Inclination (degrees)
Orbital Period (minutes)
Azimuth
Elevation
Range (km)
Doppler Factor

Next 0 passes for location: London (51.5072 / 0.1276)

Sorry there are no passes over London.